Погода в Бурцевской

Россия / Архангельская область     62°21′49″N   44°15′48″E
темп.,
°C
ветер,
м/с
пор.,
м/с
влажн.,
%
обл.,
%
осадки,
мм/ч
давл.,
гПа
погр.,
м
25 июля, вс
вс2500:00+10з287067 0.0 1012231
03:00+10юз2670100 0.0 1012153
06:00+11зюз386999 0.0 1012344
09:00+16з35545 0.0 1013961
12:00+18з454096 0.0 10132097
15:00+18з264868 0.0 1013415
18:00+16з495482 0.0 1014811
21:00+14зюз2465100 0.0 1014135
26 июля, пн
пн2600:00+14з2572100 0.0 1015127
03:00+13з2479100 0.1 101595
06:00+14з237694 0.0 1015226
09:00+17з366298 0.0 1014863
12:00+13з31095100 1.3 1015577
15:00+16зсз499015 2.2 1015958
18:00+17зсз386831 0.7 10151439
21:00+13сз49590 0.7 1016412
27 июля, вт
вт2700:00+8сз27755 0.0 1018175
03:00+6сз29855 0.0 1019207
06:00+8зсз31074100 0.0 1019388
09:00+14сз47575 0.0 1019976
12:00+19сз584131 0.0 10172098
15:00+21сз593561 0.0 10162690
18:00+19сз59404 0.0 10152060
21:00+13сз25615 0.0 101698
28 июля, ср
ср2800:00+9сз22755 0.0 101640
03:00+7сз11877 0.0 101610
06:00+11з117035 0.0 1015152
09:00+16з2453100 0.0 1013683
12:00+12юз2492100 2.1 1011174
15:00+18зсз367526 4.1 1006778
18:00+17зсз258032 0.1 1006356
21:00+14св379095 0.1 1006378
29 июля, чт
чт2900:00+10св249625 0.0 1008106
03:00+7всв25989 0.0 1008124
06:00+9всв2479100 0.0 1009252
09:00+14в225269 0.0 1009945
12:00+18вюв114165 0.0 10081281
15:00+20юз013666 0.0 10071397
18:00+20вюв11419 0.0 1006871
21:00+14вюв356265 0.0 100588